GW3716 Weather Reports


time (UTC)temp
F
wind
direction
speed
knots
gust
knots
rain 1hr
in
rain 24hr
in
rain mn
in
humidity
%
barometer
mb
20260506151000 51 30 5.2 7.0 0.00 0.02 0.02 88 1012.5
20260506150456 50 24 6.1 7.0 0.00 0.02 0.02 88 1012.2
20260506145953 50 18 9.6 11.3 0.00 0.02 0.02 88 1012.1
20260506145449 50 16 11.3 15.6 0.00 0.02 0.02 88 1011.5
20260506144947 50 34 14.8 15.6 0.00 0.02 0.02 89 1011.5
20260506144444 50 18 7.0 8.7 0.00 0.02 0.02 89 1011.4
20260506143942 50 39 10.4 14.8 0.00 0.02 0.02 89 1011.4
20260506143438 50 22 9.6 9.6 0.00 0.02 0.02 89 1011.2
20260506142937 50 23 7.8 8.7 0.00 0.02 0.02 90 1011.0
20260506142435 50 25 10.4 12.2 0.00 0.02 0.02 90 1011.1
20260506141932 50 36 3.5 5.2 0.00 0.02 0.02 90 1011.3
20260506141430 50 32 7.0 7.0 0.00 0.02 0.02 90 1011.5
20260506140928 50 59 7.0 7.0 0.00 0.02 0.02 90 1011.4
20260506140425 50 36 7.8 11.3 0.00 0.02 0.02 90 1011.5
20260506135922 50 54 7.8 11.3 0.00 0.02 0.02 91 1011.7
20260506135419 50 138 5.2 7.0 0.00 0.02 0.02 91 1011.5
20260506134915 50 25 10.4 13.0 0.05 0.02 0.02 90 1011.4
20260506134411 50 7 8.7 12.2 0.12 0.02 0.02 90 1011.4
20260506133909 50 15 8.7 11.3 0.07 0.01 0.01 90 1011.2
20260506133405 50 40 9.6 12.2 0.07 0.01 0.01 89 1011.9
20260506132902 50 6 9.6 11.3 0.00 0.00 0.00 89 1013.0
20260506132359 50 35 4.3 5.2 0.00 0.00 0.00 88 1012.7
20260506131857 50 19 4.3 5.2 0.00 0.00 0.00 88 1012.2
20260506131353 50 37 6.1 7.0 0.00 0.00 0.00 87 1012.2
20260506130850 50 39 3.5 5.2 0.00 0.00 0.00 87 1012.1
20260506130346 51 39 7.8 9.6 0.00 0.00 0.00 86 1012.1
20260506125844 51 19 7.8 9.6 0.00 0.00 0.00 85 1012.3
20260506125343 51 31 7.0 8.7 0.00 0.00 0.00 85 1012.0
20260506124841 51 12 11.3 13.0 0.00 0.00 0.00 85 1011.1
20260506124337 51 34 7.0 8.7 0.00 0.00 0.00 84 1011.2
20260506123835 51 35 5.2 8.7 0.00 0.00 0.00 83 1011.1
20260506123333 51 22 3.5 3.5 0.00 0.00 0.00 82 1011.7
20260506122830 51 40 4.3 5.2 0.00 0.00 0.00 82 1011.2
20260506122327 51 38 6.1 8.7 0.00 0.00 0.00 82 1011.0
20260506121825 51 30 7.0 8.7 0.00 0.00 0.00 82 1011.1
20260506121322 51 40 9.6 11.3 0.00 0.00 0.00 82 1010.5
20260506120819 51 44 10.4 12.2 0.00 0.00 0.00 82 1010.9
20260506120317 51 17 9.6 12.2 0.00 0.00 0.00 82 1011.1
20260506115814 51 23 10.4 15.6 0.00 0.00 0.00 82 1011.1
20260506115313 51 20 7.0 8.7 0.00 0.00 0.00 82 1010.9
20260506114810 51 55 8.7 12.2 0.00 0.00 0.00 83 1010.3
20260506114308 51 49 6.1 8.7 0.00 0.00 0.00 82 1010.2
20260506113806 51 18 9.6 12.2 0.00 0.00 0.00 83 1010.2
20260506113303 51 17 7.8 9.6 0.00 0.00 0.00 82 1009.7
20260506112759 51 28 6.1 7.0 0.00 0.00 0.00 82 1009.4
20260506112257 51 55 7.8 12.2 0.00 0.00 0.00 82 1009.5
20260506111754 51 20 7.0 8.7 0.00 0.00 0.00 81 1009.6
20260506111252 51 6 11.3 13.0 0.00 0.00 0.00 81 1009.6
20260506110749 51 41 9.6 13.0 0.00 0.00 0.00 81 1009.5
20260506110247 51 24 8.7 12.2 0.00 0.00 0.00 81 1009.4
20260506105743 52 27 5.2 7.0 0.00 0.00 0.00 80 1009.5
20260506105240 52 36 7.8 9.6 0.00 0.00 0.00 80 1009.6
20260506104738 52 11 7.0 8.7 0.00 0.00 0.00 80 1009.5
20260506104235 52 10 13.0 15.6 0.00 0.00 0.00 81 1009.6
20260506103732 52 50 6.1 6.1 0.00 0.00 0.00 81 1009.5
20260506103229 52 22 6.1 6.1 0.00 0.00 0.00 81 1009.2
20260506102727 52 31 7.8 8.7 0.00 0.00 0.00 82 1009.4
20260506102225 52 35 7.8 13.0 0.00 0.00 0.00 82 1009.4
20260506101721 52 22 6.1 8.7 0.00 0.00 0.00 83 1009.3
20260506101218 52 37 5.2 7.0 0.00 0.00 0.00 83 1009.2
20260506100716 52 24 8.7 12.2 0.00 0.00 0.00 84 1009.1
20260506100214 52 14 7.8 9.6 0.00 0.00 0.00 85 1009.0
20260506095712 52 30 7.0 8.7 0.00 0.00 0.00 85 1008.9
20260506095209 52 27 7.8 11.3 0.00 0.00 0.00 85 1008.8
20260506094706 52 22 3.5 3.5 0.00 0.00 0.00 85 1008.6
20260506094204 52 28 10.4 12.2 0.00 0.00 0.00 84 1008.8
20260506093703 52 39 5.2 7.0 0.00 0.00 0.00 84 1008.7
20260506093159 52 29 5.2 7.0 0.00 0.00 0.00 84 1008.8
20260506092657 52 20 9.6 12.2 0.00 0.00 0.00 84 1008.6
20260506092154 53 35 5.2 7.0 0.00 0.00 0.00 84 1008.4
20260506091652 53 39 6.1 11.3 0.00 0.00 0.00 84 1008.3
20260506091149 53 24 7.8 8.7 0.00 0.00 0.00 83 1008.6
20260506090647 53 12 13.9 14.8 0.00 0.00 0.00 83 1008.4
20260506090143 53 20 5.2 7.0 0.00 0.00 0.00 83 1008.5
20260506085640 53 16 7.0 7.0 0.00 0.00 0.00 83 1008.6
20260506085136 53 52 3.5 3.5 0.00 0.00 0.00 83 1008.3
20260506084633 54 17 5.2 6.1 0.00 0.00 0.00 82 1008.3
20260506084130 54 16 2.6 3.5 0.00 0.00 0.00 82 1008.2
20260506083627 54 30 9.6 9.6 0.00 0.00 0.00 82 1008.1
20260506083124 54 35 4.3 6.1 0.00 0.00 0.00 81 1008.0
20260506082621 54 8 7.8 9.6 0.00 0.00 0.00 81 1008.3
20260506082116 55 26 5.2 7.0 0.00 0.00 0.00 81 1008.4
20260506081615 55 32 4.3 5.2 0.00 0.00 0.00 80 1008.0
20260506081112 55 23 6.1 8.7 0.00 0.00 0.00 80 1008.3
20260506080610 55 30 7.0 8.7 0.00 0.00 0.00 80 1008.4
20260506080106 55 40 8.7 11.3 0.00 0.00 0.00 79 1008.3
20260506073050 57 12 7.0 9.6 0.00 0.00 0.00 76 1008.3
20260506072547 57 30 4.3 6.1 0.00 0.00 0.00 76 1008.2
20260506072045 58 21 5.2 6.1 0.00 0.00 0.00 75 1008.3
20260506071542 58 44 6.1 8.7 0.00 0.00 0.00 74 1008.2
20260506071039 59 30 5.2 6.1 0.00 0.00 0.00 74 1008.3
20260506070536 59 38 4.3 5.2 0.00 0.00 0.00 73 1008.5
20260506062514 60 53 4.3 5.2 0.00 0.00 0.00 70 1008.1
20260506062010 60 41 5.2 6.1 0.00 0.00 0.00 69 1007.8
20260506061506 61 39 3.5 3.5 0.00 0.00 0.00 69 1008.0
20260506061004 61 51 1.7 2.6 0.00 0.00 0.00 68 1007.7
20260506060503 61 64 3.5 3.5 0.00 0.00 0.00 68 1007.6
20260506050931 64 51 3.5 6.1 0.00 0.00 0.00 63 1007.4
20260506050429 64 45 2.6 3.5 0.00 0.00 0.00 62 1007.5
20260506044919 65 17 7.0 8.7 0.00 0.00 0.00 62 1007.3
20260506044418 65 55 3.5 5.2 0.00 0.00 0.00 64 1007.4
20260506043914 65 53 5.2 7.0 0.00 0.00 0.00 65 1007.6
20260506043411 66 28 2.6 2.6 0.00 0.00 0.00 65 1007.7
20260506042909 66 113 2.6 3.5 0.00 0.00 0.00 64 1007.8
20260506042408 66 92 2.6 2.6 0.00 0.00 0.00 63 1007.7
20260506041906 67 46 4.3 6.1 0.00 0.00 0.00 62 1007.5
20260506041403 67 43 5.2 6.1 0.00 0.00 0.00 61 1007.5
20260506040900 67 25 2.6 3.5 0.00 0.00 0.00 61 1007.7
20260506040358 67 44 6.1 7.0 0.00 0.00 0.00 61 1007.4
20260506035854 68 21 4.3 5.2 0.00 0.00 0.00 61 1007.2
20260506035351 68 21 4.3 6.1 0.00 0.00 0.00 60 1006.9
20260506034848 68 44 2.6 2.6 0.00 0.00 0.00 60 1006.8
20260506034345 68 50 2.6 3.5 0.00 0.00 0.00 60 1006.8
20260506033842 68 38 3.5 5.2 0.00 0.00 0.00 59 1006.8
20260506033339 69 46 5.2 6.1 0.00 0.00 0.00 59 1006.9
20260506032836 69 25 4.3 5.2 0.00 0.00 0.00 59 1007.1
20260506032333 69 18 2.6 2.6 0.00 0.00 0.00 59 1007.0
20260506031830 69 30 3.5 3.5 0.00 0.00 0.00 58 1006.9
20260506031327 70 27 3.5 5.2 0.00 0.00 0.00 58 1006.9
20260506030825 70 45 1.7 2.6 0.00 0.00 0.00 58 1006.8
20260506030323 70 33 3.5 3.5 0.00 0.00 0.00 57 1006.6
20260506025819 70 56 5.2 6.1 0.00 0.00 0.00 56 1006.6
20260506025315 70 50 2.6 3.5 0.00 0.00 0.00 56 1006.6
20260506024813 71 38 3.5 5.2 0.00 0.00 0.00 56 1006.6
20260506024309 71 39 3.5 5.2 0.00 0.00 0.00 56 1006.5
20260506023806 71 25 5.2 6.1 0.00 0.00 0.00 56 1006.5
20260506023303 71 25 4.3 5.2 0.00 0.00 0.00 56 1006.4
20260506022759 72 53 4.3 7.0 0.00 0.00 0.00 55 1006.4
20260506022257 72 33 6.1 7.0 0.00 0.00 0.00 54 1006.3
20260506021755 73 11 5.2 5.2 0.00 0.00 0.00 54 1006.0
20260506021252 73 27 6.1 6.1 0.00 0.00 0.00 54 1006.0
20260506020748 73 6 7.0 7.0 0.00 0.00 0.00 54 1005.9
20260506020246 73 21 3.5 3.5 0.00 0.00 0.00 54 1005.6
20260506015744 74 25 4.3 5.2 0.00 0.00 0.00 53 1005.6
20260506015241 74 24 3.5 5.2 0.00 0.00 0.00 52 1005.5
20260506014738 75 9 3.5 5.2 0.00 0.00 0.00 51 1005.4
20260506014234 75 34 5.2 6.1 0.00 0.00 0.00 51 1005.4
20260506013732 76 25 7.8 8.7 0.00 0.00 0.00 50 1005.0
20260506013229 77 4 3.5 5.2 0.00 0.00 0.00 49 1005.2
20260506012725 78 23 7.0 8.7 0.00 0.00 0.00 47 1005.3
20260506012222 79 6 5.2 7.0 0.00 0.00 0.00 44 1004.9
20260506011719 80 5 3.5 3.5 0.00 0.00 0.00 41 1004.8
20260506011215 82 353 5.2 6.1 0.00 0.00 0.00 37 1004.4
20260506010714 83 25 0.9 0.9 0.00 0.00 0.00 28 1004.4
20260506010211 84 15 2.6 2.6 0.00 0.00 0.00 25 1004.5
20260506005708 84 350 5.2 6.1 0.00 0.00 0.00 24 1004.3
20260506005205 84 329 2.6 2.6 0.00 0.00 0.00 24 1004.1
20260506004701 85 268 2.6 2.6 0.00 0.00 0.00 24 1004.0
20260506004159 85 317 6.1 7.0 0.00 0.00 0.00 23 1004.1
20260506003654 84 290 4.3 5.2 0.00 0.00 0.00 28 1004.1
20260506003151 84 282 2.6 2.6 0.00 0.00 0.00 29 1003.8
20260506002647 84 242 1.7 2.6 0.00 0.00 0.00 30 1003.6
20260506002143 85 232 1.7 2.6 0.00 0.00 0.00 30 1003.6
20260506001638 85 258 1.7 2.6 0.00 0.00 0.00 27 1003.7
20260506001136 86 240 1.7 0.9 0.00 0.00 0.00 27 1003.4
20260506000633 86 238 1.7 2.6 0.00 0.00 0.00 26 1003.7
20260506000131 87 237 2.6 2.6 0.00 0.00 0.00 25 1003.6
20260505235629 87 230 2.6 2.6 0.00 0.00 0.00 24 1003.6
20260505235126 87 230 3.5 3.5 0.00 0.00 0.00 24 1003.7
20260505234622 87 235 6.1 7.0 0.00 0.00 0.00 22 1003.6
20260505234119 87 238 3.5 3.5 0.00 0.00 0.00 23 1003.6
20260505233617 88 252 4.3 5.2 0.00 0.00 0.00 24 1003.5
20260505233114 88 243 5.2 6.1 0.00 0.00 0.00 23 1003.5
20260505232612 89 268 2.6 2.6 0.00 0.00 0.00 24 1003.6
20260505232109 89 240 5.2 6.1 0.00 0.00 0.00 22 1003.6
20260505231606 90 247 7.0 7.0 0.00 0.00 0.00 21 1003.7
20260505231104 91 273 5.2 5.2 0.00 0.00 0.00 22 1003.7
20260505230602 90 270 5.2 6.1 0.00 0.00 0.00 22 1003.5
20260505230058 90 251 5.2 6.1 0.00 0.00 0.00 23 1003.8
20260505225555 90 253 3.5 5.2 0.00 0.00 0.00 25 1004.0
20260505225051 90 238 4.3 6.1 0.00 0.00 0.00 23 1003.8
20260505224548 90 256 6.1 7.0 0.00 0.00 0.00 23 1004.0
20260505224045 90 256 6.1 7.0 0.00 0.00 0.00 22 1003.9
20260505223542 91 276 8.7 9.6 0.00 0.00 0.00 22 1003.8
20260505223038 91 237 9.6 9.6 0.00 0.00 0.00 22 1004.0
20260505222534 91 237 11.3 12.2 0.00 0.00 0.00 23 1003.8
20260505222031 91 261 3.5 3.5 0.00 0.00 0.00 25 1003.5
20260505221528 91 257 7.8 9.6 0.00 0.00 0.00 23 1003.6
20260505221025 90 269 7.0 8.7 0.00 0.00 0.00 24 1003.7
20260505220522 91 232 7.8 8.7 0.00 0.00 0.00 24 1003.6
20260505220020 91 291 6.1 8.7 0.00 0.00 0.00 23 1003.8
20260505215518 90 264 9.6 12.2 0.00 0.00 0.00 24 1004.0
20260505215015 90 259 7.8 8.7 0.00 0.00 0.00 23 1003.9
20260505214513 90 268 10.4 12.2 0.00 0.00 0.00 22 1003.9
20260505214010 90 263 7.8 11.3 0.00 0.00 0.00 24 1003.9
20260505213508 90 223 7.8 8.7 0.00 0.00 0.00 24 1004.0
20260505213004 90 240 8.7 9.6 0.00 0.00 0.00 24 1004.3
20260505212500 90 262 12.2 14.8 0.00 0.00 0.00 24 1004.4
20260505211957 90 280 11.3 13.0 0.00 0.00 0.00 24 1004.0
20260505211454 90 282 7.0 8.7 0.00 0.00 0.00 27 1004.1
20260505210950 89 296 12.2 13.0 0.00 0.00 0.00 25 1004.1
20260505210448 89 250 6.1 7.0 0.00 0.00 0.00 27 1004.0
20260505205944 89 286 6.1 8.7 0.00 0.00 0.00 29 1004.3
20260505205443 88 299 7.8 8.7 0.00 0.00 0.00 27 1004.3
20260505204939 88 269 8.7 8.7 0.00 0.00 0.00 28 1004.4
20260505204437 89 275 7.8 8.7 0.00 0.00 0.00 28 1004.5
20260505203934 89 229 7.0 7.0 0.00 0.00 0.00 28 1004.5
20260505203431 88 287 4.3 5.2 0.00 0.00 0.00 29 1004.5
20260505202927 88 253 6.1 7.0 0.00 0.00 0.00 30 1004.6
20260505202424 88 248 6.1 7.0 0.00 0.00 0.00 31 1004.6
20260505201920 88 254 7.8 8.7 0.00 0.00 0.00 31 1004.8
20260505201417 88 268 7.0 8.7 0.00 0.00 0.00 33 1004.7
20260505200915 88 268 6.1 7.0 0.00 0.00 0.00 34 1004.8
20260505200412 88 250 6.1 7.0 0.00 0.00 0.00 34 1004.9
20260505195908 88 260 7.0 8.7 0.00 0.00 0.00 35 1004.8
20260505195405 88 262 7.0 8.7 0.00 0.00 0.00 36 1004.8
20260505194902 88 334 4.3 6.1 0.00 0.00 0.00 33 1004.9
20260505194400 88 234 7.8 8.7 0.00 0.00 0.00 33 1005.0
20260505193900 88 246 4.3 5.2 0.00 0.00 0.00 37 1005.1
20260505193358 88 280 7.0 7.0 0.00 0.00 0.00 36 1005.1
20260505192855 88 231 7.0 8.7 0.00 0.00 0.00 38 1005.1
20260505192353 87 230 5.2 7.0 0.00 0.00 0.00 40 1005.3
20260505191851 87 257 12.2 13.0 0.00 0.00 0.00 40 1005.1
20260505191349 87 270 6.1 8.7 0.00 0.00 0.00 40 1005.3
20260505190846 87 222 5.2 5.2 0.00 0.00 0.00 41 1005.1
20260505190341 86 243 5.2 5.2 0.00 0.00 0.00 41 1005.1
20260505185837 86 219 4.3 5.2 0.00 0.00 0.00 43 1005.4
20260505185334 86 224 9.6 11.3 0.00 0.00 0.00 40 1005.5
20260505184830 86 285 5.2 7.0 0.00 0.00 0.00 42 1005.6
20260505184327 86 269 5.2 7.0 0.00 0.00 0.00 40 1005.6
20260505183824 85 232 4.3 5.2 0.00 0.00 0.00 42 1005.8
20260505183321 85 224 7.8 8.7 0.00 0.00 0.00 44 1005.7
20260505182817 85 270 6.1 7.0 0.00 0.00 0.00 45 1005.8
20260505182314 85 251 5.2 5.2 0.00 0.00 0.00 42 1005.7
20260505181811 85 259 11.3 13.0 0.00 0.00 0.00 43 1005.7
20260505181308 84 271 5.2 7.0 0.00 0.00 0.00 47 1005.9
20260505180805 85 252 3.5 5.2 0.00 0.00 0.00 47 1005.9
20260505180301 84 270 7.8 8.7 0.00 0.00 0.00 44 1006.0
20260505175758 85 279 7.0 8.7 0.00 0.00 0.00 47 1006.2
20260505175254 84 241 8.7 9.6 0.00 0.00 0.00 46 1005.9
20260505174751 83 241 9.6 11.3 0.00 0.00 0.00 44 1006.3
20260505174248 83 228 13.0 16.5 0.00 0.00 0.00 47 1006.2
20260505173744 84 265 7.0 8.7 0.00 0.00 0.00 50 1006.3
20260505173241 83 246 7.0 8.7 0.00 0.00 0.00 53 1006.0
20260505172738 83 241 7.8 8.7 0.00 0.00 0.00 52 1006.0
20260505172235 82 272 8.7 9.6 0.00 0.00 0.00 51 1006.4
20260505171735 82 245 6.1 7.0 0.00 0.00 0.00 53 1006.2
20260505171232 82 228 7.8 9.6 0.00 0.00 0.00 54 1006.3
20260505170728 81 261 7.8 8.7 0.00 0.00 0.00 56 1006.0
20260505170226 81 220 9.6 11.3 0.00 0.00 0.00 57 1006.0
20260505165721 81 243 6.1 6.1 0.00 0.00 0.00 58 1006.3
20260505165217 81 240 7.8 9.6 0.00 0.00 0.00 57 1006.4
20260505164713 81 196 7.0 7.0 0.00 0.00 0.00 59 1006.2
20260505164210 80 215 7.8 8.7 0.00 0.00 0.00 58 1006.2
20260505163708 80 276 9.6 11.3 0.00 0.00 0.00 60 1006.3
20260505163206 80 237 7.8 9.6 0.00 0.00 0.00 61 1006.4
20260505162703 79 265 9.6 9.6 0.00 0.00 0.00 62 1006.3
20260505162201 79 254 9.6 11.3 0.00 0.00 0.00 61 1006.3
20260505161657 78 279 10.4 13.0 0.00 0.00 0.00 63 1006.3
20260505161154 78 251 7.8 11.3 0.00 0.00 0.00 66 1006.2
20260505160652 78 253 7.8 9.6 0.00 0.00 0.00 64 1006.3
20260505160150 78 249 7.8 9.6 0.00 0.00 0.00 64 1005.9
20260505153129 75 242 7.0 7.0 0.00 0.00 0.00 71 1005.7
20260505152625 75 220 13.0 15.6 0.00 0.00 0.00 70 1005.7
20260505152121 74 245 7.8 7.0 0.00 0.00 0.00 72 1005.7
20260505151617 74 217 8.7 9.6 0.00 0.00 0.00 72 1005.7